sat.trackr.live / text

‹ back to catalog

NUSAT-42 (M WONENBURGER)

NORAD 56966 · 2023-084AL

PAYLOAD ACTIVE UNKNOWN

§ Identity

Operator
Country
ARGN
Launch date
2023-06-12
Launch site
AFWTR
Launch vehicle
Mass (kg)
RCS (m²)

External: N2YO · Heavens-Above · Gunter

§ Orbital elements

Epoch: 2026-09-21T23:30:35.720640Z

Period
92.96 min
Inclination
97.5831°
Eccentricity
0.0004323
Mean motion
15.49124992 rev/d
Perigee alt
416.3 km
Apogee alt
422.2 km
Semi-major
6,797.4 km
B*
3.4117e-4
RAAN
53.5766°
Arg perigee
257.5079°
Mean anomaly
102.5688°
Rev number
18,304

§ Raw data

NUSAT-42 (M WONENBURGER)1 56966U 23084AL  26264.97958010  .00018467  00000+0  34117-3 0  99922 56966  97.5831  53.5766 0004323 257.5079 102.5688 15.49124992183048

JSON: /api/v1/satellites/56966 · /tle

For live sub-satellite position, see the globe view (requires WebGL).

§ Visibility from observer

Set your observer location to see the next 7 days of passes ≥ 10°. The values pass through the URL so the page stays shareable.

No JS? Fill the form by hand. The geolocation button needs JavaScript.